TimeCDT,TemperatureF,Dew PointF,Humidity,Sea Level PressureIn,VisibilityMPH,Wind Direction,Wind SpeedMPH,Gust SpeedMPH,PrecipitationIn,Events,Conditions,WindDirDegrees,DateUTC
12:15 AM,26.6,22.5,84,30.14,10.0,Calm,Calm,-,N/A,,Clear,0,2013-04-24 05:15:00
12:35 AM,25.2,22.1,88,30.15,10.0,Calm,Calm,-,N/A,,Clear,0,2013-04-24 05:35:00
12:55 AM,25.5,23.0,90,30.15,10.0,SSW,3.5,-,N/A,,Clear,200,2013-04-24 05:55:00
1:15 AM,25.5,22.8,89,30.15,10.0,SSW,4.6,-,N/A,,Clear,210,2013-04-24 06:15:00
1:35 AM,26.2,23.4,89,30.15,10.0,South,5.8,-,N/A,,Clear,180,2013-04-24 06:35:00
1:55 AM,26.2,23.0,88,30.15,10.0,South,5.8,-,N/A,,Clear,190,2013-04-24 06:55:00
2:15 AM,25.2,22.3,89,30.15,10.0,SSW,4.6,-,N/A,,Clear,200,2013-04-24 07:15:00
2:35 AM,24.1,22.5,94,30.14,10.0,South,3.5,-,N/A,,Clear,180,2013-04-24 07:35:00
2:55 AM,25.7,23.0,89,30.13,10.0,South,4.6,-,N/A,,Clear,180,2013-04-24 07:55:00
3:15 AM,25.2,22.1,88,30.12,10.0,SSW,3.5,-,N/A,,Clear,200,2013-04-24 08:15:00
3:35 AM,24.4,21.7,89,30.12,10.0,SSW,3.5,-,N/A,,Clear,200,2013-04-24 08:35:00
3:55 AM,24.3,21.9,91,30.12,10.0,SSW,3.5,-,N/A,,Clear,200,2013-04-24 08:55:00
4:15 AM,24.1,21.7,91,30.12,10.0,South,4.6,-,N/A,,Clear,190,2013-04-24 09:15:00
4:35 AM,24.6,21.9,89,30.12,10.0,South,4.6,-,N/A,,Clear,190,2013-04-24 09:35:00
5:15 AM,24.8,22.1,89,30.12,10.0,South,3.5,-,N/A,,Clear,190,2013-04-24 10:15:00
5:35 AM,24.6,21.9,89,30.11,10.0,SSW,3.5,-,N/A,,Clear,200,2013-04-24 10:35:00
5:55 AM,24.6,22.1,90,30.11,10.0,South,3.5,-,N/A,,Clear,190,2013-04-24 10:55:00
6:15 AM,23.9,21.4,90,30.12,10.0,South,3.5,-,N/A,,Clear,190,2013-04-24 11:15:00
6:35 AM,23.9,21.7,91,30.12,10.0,Calm,Calm,-,N/A,,Clear,0,2013-04-24 11:35:00
6:55 AM,24.8,22.1,89,30.11,10.0,South,3.5,-,N/A,,Clear,180,2013-04-24 11:55:00
7:15 AM,25.7,22.6,88,30.12,10.0,South,4.6,-,N/A,,Clear,190,2013-04-24 12:15:00
7:35 AM,26.8,23.2,86,30.12,10.0,South,3.5,-,N/A,,Clear,190,2013-04-24 12:35:00
7:55 AM,28.2,24.6,86,30.12,10.0,SW,4.6,-,N/A,,Clear,230,2013-04-24 12:55:00
8:15 AM,30.2,25.0,81,30.12,10.0,WSW,3.5,-,N/A,,Clear,240,2013-04-24 13:15:00
8:35 AM,32.0,25.3,76,30.12,10.0,SW,4.6,-,N/A,,Clear,220,2013-04-24 13:35:00
8:55 AM,33.1,26.4,77,30.11,10.0,SW,5.8,-,N/A,,Clear,220,2013-04-24 13:55:00
9:15 AM,34.7,25.9,70,30.11,10.0,SW,6.9,-,N/A,,Clear,220,2013-04-24 14:15:00
9:35 AM,36.0,25.5,66,30.10,10.0,WSW,6.9,-,N/A,,Clear,240,2013-04-24 14:35:00
9:55 AM,37.2,25.0,61,30.10,10.0,WSW,9.2,-,N/A,,Clear,250,2013-04-24 14:55:00
10:15 AM,38.7,25.7,60,30.09,10.0,SW,6.9,-,N/A,,Clear,220,2013-04-24 15:15:00
10:35 AM,39.6,25.2,56,30.09,10.0,WSW,11.5,-,N/A,,Clear,240,2013-04-24 15:35:00
10:55 AM,40.8,24.6,53,30.09,10.0,SW,13.8,20.7,N/A,,Clear,230,2013-04-24 15:55:00
11:15 AM,41.9,25.2,52,30.09,10.0,WSW,15.0,21.9,N/A,,Clear,240,2013-04-24 16:15:00
11:35 AM,42.3,24.3,49,30.09,10.0,SW,16.1,20.7,N/A,,Clear,230,2013-04-24 16:35:00
11:55 AM,43.2,24.1,47,30.08,10.0,SW,15.0,18.4,N/A,,Clear,220,2013-04-24 16:55:00
12:15 PM,44.1,25.2,47,30.08,10.0,SW,13.8,23.0,N/A,,Clear,230,2013-04-24 17:15:00
12:35 PM,45.0,26.2,48,30.07,10.0,SW,17.3,26.5,N/A,,Clear,220,2013-04-24 17:35:00
12:55 PM,46.4,27.0,47,30.05,10.0,WSW,18.4,24.2,N/A,,Clear,240,2013-04-24 17:55:00
1:15 PM,47.3,26.2,44,30.04,10.0,WSW,19.6,28.8,N/A,,Clear,240,2013-04-24 18:15:00
1:35 PM,48.9,26.1,41,30.03,10.0,SW,21.9,26.5,N/A,,Clear,230,2013-04-24 18:35:00
1:55 PM,50.2,24.6,37,30.02,10.0,SW,21.9,27.6,N/A,,Clear,230,2013-04-24 18:55:00
2:15 PM,51.1,25.2,36,30.02,10.0,WSW,18.4,27.6,N/A,,Clear,250,2013-04-24 19:15:00
2:35 PM,52.2,26.1,36,30.01,10.0,WSW,19.6,26.5,N/A,,Clear,240,2013-04-24 19:35:00
2:55 PM,52.9,25.0,34,30.01,10.0,WSW,20.7,31.1,N/A,,Scattered Clouds,240,2013-04-24 19:55:00
3:15 PM,53.2,23.9,32,30.01,10.0,West,19.6,27.6,N/A,,Clear,260,2013-04-24 20:15:00
3:35 PM,53.8,24.1,32,30.00,10.0,WSW,24.2,31.1,N/A,,Scattered Clouds,240,2013-04-24 20:35:00
3:55 PM,53.2,22.6,30,29.99,10.0,West,19.6,31.1,N/A,,Mostly Cloudy,260,2013-04-24 20:55:00
4:15 PM,52.7,23.7,32,29.98,10.0,WSW,20.7,25.3,N/A,,Overcast,250,2013-04-24 21:15:00
4:35 PM,51.3,26.1,38,29.97,10.0,West,16.1,25.3,N/A,,Mostly Cloudy,260,2013-04-24 21:35:00
4:55 PM,45.5,33.6,63,30.01,5.0,WNW,16.1,35.7,N/A,Rain,Rain,290,2013-04-24 21:55:00
5:15 PM,43.2,37.0,79,30.02,10.0,West,9.2,-,N/A,,Drizzle,270,2013-04-24 22:15:00
5:35 PM,44.6,38.5,79,30.01,10.0,West,11.5,18.4,0.01,,Mostly Cloudy,260,2013-04-24 22:35:00
5:55 PM,45.5,38.3,76,30.02,10.0,NW,12.7,20.7,0.01,,Mostly Cloudy,310,2013-04-24 22:55:00
6:15 PM,45.5,36.7,71,30.03,10.0,NW,12.7,27.6,N/A,,Scattered Clouds,310,2013-04-24 23:15:00
6:35 PM,45.5,34.5,65,30.03,10.0,NW,15.0,26.5,N/A,,Clear,310,2013-04-24 23:35:00
6:55 PM,45.0,32.7,62,30.03,10.0,NW,13.8,23.0,N/A,,Clear,310,2013-04-24 23:55:00
7:15 PM,44.1,31.6,62,30.04,10.0,NW,11.5,18.4,N/A,,Scattered Clouds,320,2013-04-25 00:15:00
7:35 PM,42.1,33.1,70,30.04,10.0,NW,12.7,23.0,N/A,,Mostly Cloudy,310,2013-04-25 00:35:00
7:55 PM,40.8,33.8,76,30.05,10.0,WNW,9.2,-,N/A,,Scattered Clouds,300,2013-04-25 00:55:00
8:15 PM,39.2,33.8,81,30.06,10.0,WNW,9.2,16.1,N/A,,Clear,290,2013-04-25 01:15:00
8:35 PM,38.7,33.8,83,30.07,10.0,West,9.2,-,N/A,,Clear,280,2013-04-25 01:35:00
8:55 PM,38.1,32.5,80,30.09,10.0,WNW,11.5,17.3,N/A,,Clear,290,2013-04-25 01:55:00
10:15 PM,35.6,31.8,86,30.12,10.0,WNW,9.2,-,N/A,,Clear,290,2013-04-25 03:15:00
10:35 PM,34.7,31.5,88,30.13,10.0,WNW,8.1,-,N/A,,Clear,300,2013-04-25 03:35:00
10:55 PM,34.7,31.1,87,30.14,10.0,WNW,9.2,-,N/A,,Clear,300,2013-04-25 03:55:00
11:15 PM,33.8,30.9,89,30.14,10.0,WNW,4.6,-,N/A,,Clear,290,2013-04-25 04:15:00
11:35 PM,33.1,31.1,92,30.14,10.0,West,5.8,-,N/A,,Clear,270,2013-04-25 04:35:00
11:55 PM,32.9,31.1,93,30.14,10.0,West,4.6,-,N/A,,Clear,260,2013-04-25 04:55:00